COSMOS 783

Satellite information

Favourite Embed

Satellite Type and Status

PAYLOADIN ORBIT

Key statistics

Satellite COSMOS 783 at a glance.

Uptime

18058

Days in orbit

Revolutions

≈ 14.3

Per day

Orbit

LEO

Low Earth Orbit

Inclination

74.1

Latest

Satellite identification and parameters

Extended collection of information and parameters for COSMOS 783.

Object identification

Identified? True

Debris? False

Object name: COSMOS 783

International designator: 1975-112A

Object number (NORAD): 8458

Object ID (CCSDS): 8458

Country: COMMONWEALTH OF INDEPENDENT STATES (CIS)

Current information (Y/N): Y

RCS size: LARGE

Orbital parameters

Period: 100.446 minutes

Inclination: 74.0613 deg

SMA: 7157.82 km

Apoapsis: 788.795 km

Periapsis: 770.576 km

RAAN: 26.9517 deg

Eccentricy: 0.0012727

Argument of periapsis: 204.6955 deg

Mean anomaly: 155.3589 deg

Mean motion: 14.33611838 rev/day

Mean motion (dot): 0.0000019 rev/day2

B* drag term: 0.000077713 1/REarth

Two-line elements (TLE)

Creation date: May 6, 2025, 3:54 a.m.

Reference frame: TEME

Reference center: EARTH

Epoch: May 5, 2025, 8:43 p.m. UTC

TLE line 0: 0 COSMOS 783

TLE line 1: 1 08458U 75112A 25125.86334393 .00000190 00000-0 77713-4 0 9994

TLE line 2: 2 08458 74.0613 26.9517 0012727 204.6955 155.3589 14.33611838581815

Live tracking on map

Real-time ground track for satellite COSMOS 783.

In-orbit conjunctions

A list of the most updated potential collisions computed for object COSMOS 783.

Target Orbit TCA Probability of collision Miss distance Type
COSMOS 1275 DEB LEO 2025-04-14 06:44:00 0.003668527 118.0 (m) DEBRIS
FENGYUN 1C DEB SSO 2025-02-09 09:30:05 0.0001102348 939.0 (m) DEBRIS
NOAA 16 DEB SSO 2025-01-06 08:35:11 0.001126993 68.0 (m) DEBRIS
DMSP 5D-3 F18 DEB SSO 2024-12-28 20:18:02 0.0004192317 925.0 (m) DEBRIS
FENGYUN 1C DEB SSO 2024-12-02 04:39:25 0.00209427 236.0 (m) DEBRIS

Associated space launch

Military communications satellite

COSMOS 783 was lifted into orbit during the mission ‘Kosmos-3M | Strela-2M 11’, on board a Kosmos-3M space rocket.

The launch took place on Nov. 28, 1975, 12:10 a.m. from 132/1 (132L).

For more information about the launch, click the button.

Launch to space Kosmos-3M | Strela-2M 11
Kosmos-3M | Strela-2M 11

Agency: N/A

Status: Launch Successful

Launch date: Nov. 28, 1975, 12:10 a.m. UTC

Rocket: Kosmos-3M

Launch pad: 132/1 (132L)

Location: Plesetsk Cosmodrome, Russian Federation

...

Latest news about this satellite

There are no fresh news available about this satellite. Check back as we update our databases every day.


Newsletter sign-up

Weekly statistics, charts and insights to help you stay on top of the space industry.